KT2UU-13 Weather Reports


time (UTC)temp
F
wind
direction
speed
knots
gust
knots
rain 1hr
in
rain 24hr
in
rain mn
in
humidity
%
barometer
mb
20260510034545 62 163 0.0 0.0 0.00 0.00 0.00 98 1015.6
20260510034041 61 163 0.0 0.0 0.00 0.00 0.00 98 1015.4
20260510033537 62 163 0.0 0.0 0.00 0.00 0.00 97 1015.6
20260510033035 62 163 0.0 0.0 0.00 0.00 0.00 97 1015.2
20260510032532 62 163 0.0 0.0 0.00 0.00 0.00 97 1015.1
20260510032027 62 163 0.0 0.0 0.00 0.00 0.00 97 1015.5
20260510031522 62 163 0.0 0.0 0.00 0.00 0.00 97 1015.3
20260510031018 62 163 0.0 0.0 0.00 0.00 0.00 97 1015.3
20260510030514 62 163 0.0 0.0 0.00 0.00 0.00 97 1015.2
20260510030011 62 163 0.0 0.0 0.00 0.00 0.00 97 1015.1
20260510025508 62 163 0.0 0.0 0.00 0.00 0.00 96 1015.1
20260510025006 62 163 0.0 0.0 0.00 0.00 0.00 96 1015.0
20260510024503 62 163 0.0 0.0 0.00 0.00 0.00 96 1014.9
20260510023958 62 163 0.0 0.0 0.00 0.00 0.00 96 1015.0
20260510023455 62 163 0.0 0.0 0.00 0.00 0.00 96 1014.8
20260510022952 62 163 0.0 0.0 0.00 0.00 0.00 96 1014.8
20260510022451 62 163 0.0 0.0 0.00 0.00 0.00 96 1014.8
20260510021950 63 163 0.0 0.0 0.00 0.00 0.00 95 1014.7
20260510021448 63 163 0.0 0.0 0.00 0.00 0.00 94 1014.5
20260510020944 63 163 0.0 0.0 0.00 0.00 0.00 94 1014.5
20260510020439 63 163 0.0 0.0 0.00 0.00 0.00 94 1014.5
20260510015935 63 163 0.0 0.0 0.00 0.00 0.00 93 1014.5
20260510015431 63 163 0.0 0.0 0.00 0.00 0.00 93 1014.3
20260510014926 64 163 0.0 0.0 0.00 0.00 0.00 93 1014.4
20260510014424 64 163 0.0 0.0 0.00 0.00 0.00 92 1013.9
20260510013920 64 163 0.0 0.0 0.00 0.00 0.00 91 1013.8
20260510013415 64 163 0.0 0.0 0.00 0.00 0.00 91 1014.1
20260510012910 64 163 0.0 0.0 0.00 0.00 0.00 90 1014.0
20260510012406 65 163 0.0 0.0 0.00 0.00 0.00 89 1014.2
20260510011901 65 163 0.0 0.0 0.00 0.00 0.00 89 1013.8
20260510011356 65 163 0.0 0.0 0.00 0.00 0.00 88 1013.8
20260510010853 66 163 0.0 0.0 0.00 0.00 0.00 88 1014.2
20260510010350 66 163 0.0 0.0 0.00 0.00 0.00 87 1013.9
20260510005846 67 163 0.0 0.0 0.00 0.00 0.00 86 1013.9
20260510005343 67 163 0.0 0.0 0.00 0.00 0.00 85 1013.7
20260510004840 68 163 0.0 0.0 0.00 0.00 0.00 84 1013.8
20260510004338 68 163 0.0 0.0 0.00 0.00 0.00 82 1013.8
20260510003836 68 167 0.0 0.0 0.00 0.00 0.00 81 1013.7
20260510003332 68 163 0.0 0.0 0.00 0.00 0.00 81 1013.8
20260510002831 69 163 0.0 0.0 0.00 0.00 0.00 81 1013.5
20260510002328 69 163 0.0 0.0 0.00 0.00 0.00 81 1013.5
20260510001825 69 163 0.0 0.0 0.00 0.00 0.00 81 1013.5
20260510001323 69 163 0.0 0.0 0.00 0.00 0.00 81 1013.5
20260510000819 69 163 0.0 0.0 0.00 0.00 0.00 79 1013.4
20260510000318 70 163 0.0 0.0 0.00 0.00 0.00 78 1013.2
20260509235813 70 163 0.0 0.0 0.00 0.00 0.00 77 1013.2
20260509235310 70 163 0.0 0.0 0.00 0.00 0.00 77 1013.1
20260509234805 71 163 0.0 0.0 0.00 0.00 0.00 75 1013.0
20260509234302 71 163 0.0 0.0 0.00 0.00 0.00 75 1013.1
20260509233801 71 167 0.0 0.9 0.00 0.00 0.00 73 1013.2
20260509233258 71 163 0.9 0.9 0.00 0.00 0.00 72 1013.0
20260509232754 72 158 0.0 0.9 0.00 0.00 0.00 72 1012.9
20260509232251 72 204 0.9 1.7 0.00 0.00 0.00 71 1012.8
20260509231747 72 167 0.0 1.7 0.00 0.00 0.00 71 1012.8
20260509231244 73 194 1.7 2.6 0.00 0.00 0.00 71 1012.7
20260509230742 73 187 0.0 0.0 0.00 0.00 0.00 71 1012.8
20260509230239 74 219 0.0 0.0 0.00 0.00 0.00 72 1012.7
20260509225734 74 241 0.0 0.0 0.00 0.00 0.00 71 1012.9
20260509225230 73 139 0.0 1.7 0.00 0.00 0.00 68 1012.5
20260509224726 73 192 0.0 0.0 0.00 0.00 0.00 69 1012.7
20260509224224 73 192 0.0 0.0 0.00 0.00 0.00 68 1012.4
20260509223720 73 192 0.0 0.9 0.00 0.00 0.00 70 1012.8
20260509223217 73 200 0.0 1.7 0.00 0.00 0.00 69 1012.8
20260509222714 74 190 0.0 0.9 0.00 0.00 0.00 70 1012.5
20260509222209 74 200 0.0 2.6 0.00 0.00 0.00 68 1012.6
20260509221705 74 169 2.6 3.5 0.00 0.00 0.00 66 1012.4
20260509221201 74 230 0.9 2.6 0.00 0.00 0.00 67 1012.5
20260509220658 74 184 0.9 1.7 0.00 0.00 0.00 69 1012.5
20260509220154 76 186 0.0 1.7 0.00 0.00 0.00 66 1012.5
20260509215650 75 216 0.0 0.0 0.00 0.00 0.00 68 1012.4
20260509215147 75 174 0.0 0.0 0.00 0.00 0.00 69 1012.6
20260509214644 75 174 0.0 0.0 0.00 0.00 0.00 68 1012.2
20260509214141 75 174 0.0 0.0 0.00 0.00 0.00 69 1012.6
20260509213637 74 174 0.9 1.7 0.00 0.00 0.00 69 1012.6
20260509213133 74 195 1.7 1.7 0.00 0.00 0.00 72 1012.3
20260509212631 74 195 0.9 1.7 0.00 0.00 0.00 71 1012.4
20260509212127 74 194 0.0 0.9 0.00 0.00 0.00 70 1012.5
20260509211623 74 196 0.0 3.5 0.00 0.00 0.00 69 1012.5
20260509211120 75 186 0.9 1.7 0.00 0.00 0.00 69 1012.6
20260509210617 75 231 1.7 3.5 0.00 0.00 0.00 66 1012.5
20260509210114 75 326 0.0 0.0 0.00 0.00 0.00 68 1012.6
20260509205608 74 326 0.0 0.0 0.00 0.00 0.00 71 1012.5
20260509205103 74 176 0.9 1.7 0.00 0.00 0.00 70 1012.6
20260509204600 73 174 0.0 0.0 0.00 0.00 0.00 71 1012.4
20260509204057 74 174 0.0 0.9 0.00 0.00 0.00 69 1012.4
20260509203552 73 172 0.9 0.9 0.00 0.00 0.00 71 1012.8
20260509203050 74 184 0.9 2.6 0.00 0.00 0.00 68 1012.9
20260509202545 74 194 0.9 3.5 0.00 0.00 0.00 69 1012.9
20260509202041 74 209 0.0 1.7 0.00 0.00 0.00 69 1012.9
20260509201536 74 277 0.9 2.6 0.00 0.00 0.00 71 1012.8
20260509201034 73 166 0.0 0.9 0.00 0.00 0.00 72 1012.6
20260509200527 72 166 0.0 0.9 0.00 0.00 0.00 72 1012.7
20260509200025 73 204 0.0 0.9 0.00 0.00 0.00 71 1012.6
20260509195520 72 211 1.7 1.7 0.00 0.00 0.00 69 1012.4
20260509195020 72 166 1.7 2.6 0.00 0.00 0.00 70 1012.7
20260509194515 72 191 1.7 3.5 0.00 0.00 0.00 71 1012.7
20260509194013 72 169 0.0 0.0 0.00 0.00 0.00 71 1012.9
20260509193513 73 165 0.0 1.7 0.00 0.00 0.00 71 1012.6
20260509193010 73 183 0.9 1.7 0.00 0.00 0.00 70 1012.9
20260509192506 72 143 0.0 0.0 0.00 0.00 0.00 70 1013.0
20260509192001 72 251 0.0 1.7 0.00 0.00 0.00 71 1013.0
20260509191456 72 194 1.7 2.6 0.00 0.00 0.00 72 1012.9
20260509190952 72 159 0.9 1.7 0.00 0.00 0.00 72 1013.1
20260509190449 71 159 0.9 1.7 0.00 0.00 0.00 72 1013.0
20260509185947 71 151 1.7 3.5 0.00 0.00 0.00 73 1012.9
20260509185444 71 142 0.9 2.6 0.00 0.00 0.00 73 1013.0
20260509184940 72 112 0.0 0.9 0.00 0.00 0.00 73 1013.0
20260509184439 71 359 0.9 0.9 0.00 0.00 0.00 73 1013.3
20260509183935 71 107 0.0 0.0 0.00 0.00 0.00 73 1013.4
20260509183429 70 112 0.0 1.7 0.00 0.00 0.00 73 1013.3
20260509182926 70 187 0.0 0.9 0.00 0.00 0.00 75 1013.5
20260509182422 71 118 0.0 0.9 0.00 0.00 0.00 74 1013.4
20260509181920 70 108 0.0 2.6 0.00 0.00 0.00 75 1013.1
20260509181418 70 186 0.9 2.6 0.00 0.00 0.00 74 1013.2
20260509180914 69 129 0.0 1.7 0.00 0.00 0.00 75 1013.3
20260509180409 70 40 0.0 0.0 0.00 0.00 0.00 77 1013.5
20260509175907 70 355 0.9 1.7 0.00 0.00 0.00 76 1013.1
20260509175403 69 119 0.0 2.6 0.00 0.00 0.00 76 1013.4
20260509174859 70 357 0.0 0.9 0.00 0.00 0.00 77 1013.4
20260509174356 69 2 0.0 0.0 0.00 0.00 0.00 79 1013.4
20260509173851 68 358 0.9 1.7 0.00 0.00 0.00 78 1013.4
20260509173341 67 359 0.0 2.6 0.00 0.00 0.00 79 1013.1
20260509172838 67 358 0.0 0.9 0.00 0.00 0.00 78 1013.3
20260509172334 68 359 1.7 1.7 0.00 0.00 0.00 77 1013.1
20260509171830 67 223 0.9 1.7 0.00 0.00 0.00 78 1013.3
20260509171326 68 195 0.9 1.7 0.00 0.00 0.00 78 1013.4
20260509170823 68 195 0.0 0.0 0.00 0.00 0.00 80 1013.6
20260509170319 68 137 1.7 1.7 0.00 0.00 0.00 79 1013.6
20260509165818 68 274 0.0 1.7 0.00 0.00 0.00 79 1013.6
20260509165313 67 199 0.0 1.7 0.00 0.00 0.00 82 1013.7
20260509164809 67 231 2.6 3.5 0.00 0.00 0.00 80 1013.9
20260509164300 66 155 0.0 1.7 0.00 0.00 0.00 82 1013.8
20260509163756 66 243 1.7 3.5 0.00 0.00 0.00 83 1014.0
20260509163253 67 105 0.9 1.7 0.00 0.00 0.00 83 1014.3
20260509162752 66 158 0.0 0.9 0.00 0.00 0.00 86 1014.0
20260509162245 66 191 2.6 6.1 0.00 0.00 0.00 83 1014.3
20260509161741 66 175 0.0 2.6 0.00 0.00 0.00 86 1014.0
20260509161232 66 114 0.0 0.0 0.00 0.00 0.00 87 1014.1
20260509160727 65 228 0.0 0.9 0.00 0.00 0.00 87 1014.0
20260509160224 64 248 0.0 0.9 0.00 0.00 0.00 89 1013.9
20260509155719 64 148 0.9 1.7 0.00 0.00 0.00 89 1013.9
20260509155216 63 164 0.0 0.9 0.00 0.00 0.00 91 1014.0
20260509154712 63 169 1.7 3.5 0.00 0.00 0.00 90 1014.1
20260509154209 63 141 0.9 1.7 0.00 0.00 0.00 92 1014.3
20260509153706 63 135 0.0 0.9 0.00 0.00 0.00 92 1014.3
20260509153202 63 152 0.9 0.9 0.00 0.00 0.00 92 1014.3
20260509152658 62 211 0.9 1.7 0.00 0.00 0.00 93 1014.3
20260509152155 62 179 0.9 3.5 0.00 0.00 0.00 93 1014.4
20260509151652 62 138 0.9 1.7 0.00 0.00 0.00 93 1014.3
20260509151149 62 178 0.9 1.7 0.00 0.00 0.00 93 1014.6
20260509150647 62 160 0.0 0.9 0.00 0.00 0.00 93 1014.7
20260509150145 62 191 1.7 2.6 0.00 0.00 0.00 93 1014.5
20260509145641 62 197 0.0 0.0 0.00 0.00 0.00 94 1014.5
20260509145136 61 154 0.0 0.9 0.00 0.00 0.00 94 1014.6
20260509144633 61 193 2.6 2.6 0.00 0.00 0.00 94 1014.4
20260509144131 61 188 0.0 1.7 0.00 0.00 0.00 94 1014.4
20260509143628 61 154 0.0 0.9 0.00 0.00 0.00 95 1014.5
20260509143125 61 167 0.0 0.9 0.00 0.00 0.00 94 1014.3
20260509142620 61 195 0.0 0.0 0.00 0.00 0.00 93 1014.2
20260509142117 61 195 0.0 1.7 0.00 0.00 0.00 94 1014.0
20260509141613 61 195 0.0 0.0 0.00 0.00 0.00 93 1013.9
20260509141109 61 195 0.0 0.0 0.00 0.00 0.00 94 1013.7
20260509140607 61 195 0.0 0.9 0.00 0.00 0.00 93 1013.8
20260509140105 61 195 0.0 0.9 0.00 0.00 0.00 94 1013.4
20260509135601 61 137 0.0 0.9 0.00 0.00 0.00 93 1013.4
20260509135059 61 168 0.0 0.0 0.00 0.00 0.00 93 1013.5
20260509134556 61 198 0.0 0.0 0.00 0.00 0.00 93 1013.4
20260509134053 61 198 0.0 0.0 0.00 0.00 0.00 93 1013.3
20260509133550 61 225 0.9 1.7 0.00 0.00 0.00 92 1013.4
20260509133048 61 186 0.0 0.0 0.00 0.00 0.00 93 1013.3
20260509132546 60 203 0.0 0.0 0.00 0.00 0.00 93 1013.3
20260509132044 60 204 0.0 0.9 0.00 0.00 0.00 93 1013.4
20260509131539 60 146 0.0 0.0 0.00 0.00 0.00 94 1013.5
20260509131036 60 178 0.0 0.0 0.00 0.00 0.00 94 1013.3
20260509130531 60 179 0.0 0.0 0.00 0.00 0.00 95 1013.3
20260509130024 59 185 0.0 0.0 0.00 0.00 0.00 95 1013.4
20260509125520 59 209 0.0 0.0 0.00 0.00 0.00 96 1013.3
20260509125016 59 227 0.0 0.0 0.00 0.00 0.00 96 1013.4
20260509124513 59 353 0.0 0.0 0.00 0.00 0.00 96 1013.4
20260509124011 59 353 0.0 0.0 0.00 0.00 0.00 96 1013.3
20260509123508 59 353 0.0 0.0 0.00 0.00 0.00 96 1013.3
20260509123004 59 353 0.0 0.0 0.00 0.00 0.00 96 1013.4
20260509122501 59 353 0.0 0.0 0.00 0.00 0.00 96 1013.2
20260509121958 59 353 0.0 0.0 0.00 0.00 0.00 96 1013.4
20260509121454 59 353 0.0 0.0 0.00 0.00 0.00 96 1013.2
20260509120952 58 359 0.0 0.0 0.00 0.00 0.00 96 1013.0
20260509120450 58 353 0.0 0.0 0.00 0.00 0.00 96 1013.2
20260509115948 58 353 0.0 0.0 0.00 0.00 0.00 97 1013.1
20260509115445 58 353 0.0 0.0 0.00 0.00 0.00 97 1012.9
20260509114942 58 359 0.0 0.0 0.00 0.00 0.00 97 1013.0
20260509114441 58 353 0.0 0.0 0.00 0.00 0.00 98 1012.8
20260509113940 57 353 0.0 0.0 0.00 0.00 0.00 98 1012.8
20260509113437 57 353 0.0 0.0 0.00 0.00 0.00 98 1013.0
20260509112933 57 353 0.0 0.0 0.00 0.00 0.00 98 1012.9
20260509112431 57 353 0.0 0.0 0.00 0.00 0.00 98 1013.0
20260509111927 57 353 0.0 0.0 0.00 0.00 0.00 98 1013.0
20260509111425 57 353 0.0 0.0 0.00 0.00 0.00 98 1012.7
20260509110922 57 353 0.0 0.0 0.00 0.00 0.00 98 1012.6
20260509110418 56 353 0.0 0.0 0.00 0.00 0.00 98 1012.8
20260509105916 56 353 0.0 0.0 0.00 0.00 0.00 98 1012.8
20260509105415 56 353 0.0 0.0 0.00 0.00 0.00 98 1012.8
20260509104911 56 353 0.0 0.0 0.00 0.00 0.00 98 1012.8
20260509104408 56 353 0.0 0.0 0.00 0.00 0.00 98 1012.8
20260509103906 56 353 0.0 0.0 0.00 0.00 0.00 99 1012.8
20260509103402 56 353 0.0 0.0 0.00 0.00 0.00 99 1012.8
20260509102901 56 353 0.0 0.0 0.00 0.00 0.00 99 1013.1
20260509102358 55 353 0.0 0.0 0.00 0.00 0.00 99 1012.9
20260509101854 55 353 0.0 0.0 0.00 0.00 0.00 99 1012.8
20260509101350 55 353 0.0 0.0 0.00 0.00 0.00 99 1012.6
20260509100848 55 353 0.0 0.0 0.00 0.00 0.00 99 1012.7
20260509100345 55 353 0.0 0.0 0.00 0.00 0.00 99 1012.6
20260509095841 55 353 0.0 0.0 0.00 0.00 0.00 99 1013.1
20260509095339 55 353 0.0 0.0 0.00 0.00 0.00 99 1012.9
20260509094836 55 353 0.0 0.0 0.00 0.00 0.00 99 1013.1
20260509094332 55 353 0.0 0.0 0.00 0.00 0.00 99 1013.0
20260509093830 55 353 0.0 0.0 0.00 0.00 0.00 99 1013.0
20260509093327 55 353 0.0 0.0 0.00 0.00 0.00 99 1013.1
20260509092826 55 353 0.0 0.0 0.00 0.00 0.00 99 1013.1
20260509092323 54 353 0.0 0.0 0.00 0.00 0.00 99 1013.1
20260509091821 54 353 0.0 0.0 0.00 0.00 0.00 99 1013.3
20260509091318 54 353 0.0 0.0 0.00 0.00 0.00 99 1013.2
20260509090815 54 353 0.0 0.9 0.00 0.00 0.00 99 1012.8
20260509090312 54 307 0.0 0.9 0.00 0.00 0.00 99 1013.0
20260509085809 54 187 0.0 0.0 0.00 0.00 0.00 99 1013.2
20260509085307 54 187 0.0 0.0 0.00 0.00 0.00 99 1013.1
20260509084803 54 187 0.0 0.0 0.00 0.00 0.00 99 1013.2
20260509084300 54 174 0.0 0.0 0.00 0.00 0.00 99 1013.1
20260509083758 54 171 0.0 0.0 0.00 0.00 0.00 98 1012.7
20260509083254 54 151 0.0 0.0 0.00 0.00 0.00 98 1012.8
20260509082751 54 151 0.0 0.0 0.00 0.00 0.00 99 1012.8
20260509082247 54 151 0.0 0.0 0.00 0.00 0.00 99 1012.7
20260509081744 54 223 0.0 0.0 0.00 0.00 0.00 99 1012.6
20260509081242 54 223 0.0 0.0 0.00 0.00 0.00 99 1012.6
20260509080740 54 223 0.0 0.0 0.00 0.00 0.00 99 1013.0
20260509080237 54 224 0.0 0.0 0.00 0.00 0.00 99 1013.1
20260509075736 54 224 0.0 0.0 0.00 0.00 0.00 99 1013.2
20260509075233 53 224 0.0 0.0 0.00 0.00 0.00 99 1013.3
20260509074729 54 224 0.0 0.0 0.00 0.00 0.00 99 1013.1
20260509074227 54 224 0.0 0.0 0.00 0.00 0.00 99 1013.0
20260509073723 53 224 0.0 0.0 0.00 0.00 0.00 99 1013.1
20260509073220 53 224 0.0 0.0 0.00 0.00 0.00 99 1013.0
20260509072716 54 224 0.0 0.0 0.00 0.00 0.00 99 1012.8
20260509072213 54 224 0.0 0.0 0.00 0.00 0.00 99 1012.8
20260509071710 54 224 0.0 0.0 0.00 0.00 0.00 99 1012.9
20260509071207 53 224 0.0 0.0 0.00 0.00 0.00 99 1013.3
20260509070704 53 224 0.0 0.0 0.00 0.00 0.00 99 1013.2
20260509070200 53 224 0.0 0.0 0.00 0.00 0.00 99 1013.1
20260509065656 53 264 0.0 0.0 0.00 0.00 0.00 99 1013.2
20260509065153 53 264 0.0 0.0 0.00 0.00 0.00 99 1013.0
20260509064650 53 264 0.0 0.0 0.00 0.00 0.00 99 1013.1
20260509064147 53 264 0.0 0.0 0.00 0.00 0.00 99 1013.0
20260509063644 53 264 0.0 0.0 0.00 0.00 0.00 99 1013.1
20260509063140 53 264 0.0 0.0 0.00 0.00 0.00 99 1013.4
20260509062638 53 278 0.0 0.9 0.00 0.00 0.00 98 1013.2
20260509062135 53 9 0.0 0.0 0.00 0.00 0.00 98 1013.2
20260509061631 53 9 0.0 0.0 0.00 0.00 0.00 98 1013.3
20260509061129 53 9 0.0 0.0 0.00 0.00 0.00 98 1013.5
20260509060627 53 9 0.0 0.0 0.00 0.00 0.00 98 1013.5
20260509060122 54 9 0.0 0.0 0.00 0.00 0.00 98 1013.4
20260509055618 53 9 0.0 0.0 0.00 0.00 0.00 98 1013.8
20260509055114 53 9 0.0 0.0 0.00 0.00 0.00 98 1013.9
20260509054611 53 8 0.0 0.0 0.00 0.00 0.00 97 1014.1
20260509054109 53 21 0.0 0.0 0.00 0.00 0.00 97 1014.3
20260509053607 54 8 0.0 0.0 0.00 0.00 0.00 97 1014.5
20260509053104 54 8 0.0 0.0 0.00 0.00 0.00 97 1014.5
20260509052602 54 8 0.0 0.0 0.00 0.00 0.00 97 1014.4
20260509052059 54 8 0.0 0.0 0.00 0.00 0.00 97 1014.5
20260509051557 54 8 0.0 0.0 0.00 0.00 0.00 96 1014.5
20260509051054 54 8 0.0 0.0 0.00 0.00 0.00 96 1014.7
20260509050550 54 8 0.0 0.0 0.00 0.00 0.00 95 1014.3
20260509050047 55 8 0.0 0.0 0.00 0.00 0.00 95 1014.4
20260509045545 55 21 0.0 0.0 0.00 0.00 0.00 94 1014.3
20260509045041 56 8 0.0 0.0 0.00 0.00 0.00 94 1014.3
20260509044539 56 8 0.0 0.0 0.00 0.00 0.00 94 1014.1
20260509044036 56 8 0.0 0.0 0.00 0.00 0.00 94 1014.1
20260509043532 56 8 0.0 0.0 0.00 0.00 0.00 94 1014.0
20260509043028 56 8 0.0 0.0 0.00 0.00 0.00 93 1014.0
20260509042524 56 8 0.0 0.0 0.00 0.00 0.00 94 1014.1
20260509042021 56 8 0.0 0.0 0.00 0.00 0.00 93 1014.1
20260509041517 56 9 0.0 0.0 0.00 0.00 0.00 94 1014.4
20260509041015 56 9 0.0 0.0 0.00 0.00 0.00 93 1014.4
20260509040513 56 9 0.0 0.0 0.00 0.00 0.00 93 1014.6
20260509040005 56 11 0.0 0.0 0.00 0.00 0.00 93 1014.8
20260509035501 56 11 0.0 0.0 0.00 0.00 0.00 93 1014.8
20260509034957 56 24 0.0 0.0 0.00 0.00 0.00 93 1014.9